Home > Weather > Kohtla-Järve > Past weeks

Flag for Estonia Past Weather in Kohtla-Järve, Estonia — Yesterday and Last 2 Weeks

Now
59 °F

Duststorm.


Feels Like: 59 °F
Forecast: 64 / 74 °F
Wind: No wind

Location: Johvi

Current Time: Jul 26, 2016 at 3:44:13 AM

Latest Report: Jul 26, 2016 at 3:00 AM


Visibility: 0 mi

Pressure: 30.07 "Hg

Humidity: 97%

Dew Point: 58 °F

Location of Kohtla-JärveLocation

Past Weather in Kohtla-Järve — Graph

°F

Kohtla-Järve Temperature Yesterday

Maximum temperature yesterday: 76 °F (at 5:00 PM)
Minimum temperature yesterday: 58 °F (at 6:00 AM)
Average temperature yesterday: 68 °F

High & Low Weather Summary for the Past Weeks

 TemperatureHumidityPressure
High76 °F (Jul 25, 5:00 PM)97% (Jul 11, 4:00 AM)30.16 "Hg (Jul 11, 4:00 AM)
Low51 °F (Jul 14, 4:00 AM)49% (Jul 14, 3:00 PM)29.55 "Hg (Jul 12, 5:00 AM)
Average63 °F83%29.90 "Hg
* Reported Jul 11 2:00 AM — Jul 26 2:00 AM, Kohtla-Järve, Weather by CustomWeather, © 2016

Note: Actual official high and low records may vary slightly from our data, if they occured in-between our weather recording intervals... More about our weather records

Advertising

Kohtla-Järve Weather History for the Previous 24 Hours

Scroll right to see more
 ConditionsComfort  
Time TempWeatherWind HumidityBarometerVisibility
2:00 AM
Tue, Jul 26
59 °FDuststorm.No wind95%30.08 "Hg0 mi
1:00 AM60 °FPassing clouds.No wind96%30.08 "Hg2 mi
12:00 AM61 °FFog.1 mph94%30.08 "Hg1 mi
11:00 PM
Mon, Jul 25
64 °FFog.1 mph92%30.09 "Hg6 mi
10:00 PM67 °FClear.1 mph85%30.08 "Hg7 mi
9:00 PM69 °FPassing clouds.1 mph80%30.07 "Hg8 mi
8:00 PM71 °FSunny.2 mph78%30.07 "Hg10 mi
7:00 PM74 °FPassing clouds.2 mph73%30.07 "Hg9 mi
6:00 PM75 °FSunny.2 mph68%30.07 "Hg10 mi
5:00 PM76 °FPassing clouds.2 mph70%30.08 "Hg11 mi
4:00 PM75 °FOvercast.2 mph73%30.10 "Hg9 mi
3:00 PM76 °FOvercast.1 mph66%30.11 "Hg11 mi
2:00 PM74 °FOvercast.2 mph66%30.12 "Hg9 mi
1:00 PM75 °FPartly sunny.1 mph66%30.12 "Hg14 mi
12:00 PM72 °FOvercast.No wind75%30.14 "Hg11 mi
11:00 AM72 °FOvercast.1 mph73%30.14 "Hg11 mi
10:00 AM70 °FOvercast.1 mph78%30.15 "Hg11 mi
9:00 AM70 °FPassing clouds.1 mph80%30.15 "Hg11 mi
8:00 AM67 °FFog.2 mph84%30.15 "Hg6 mi
7:00 AM64 °FFog.No wind96%30.14 "Hg4 mi
6:00 AM58 °FFog.No wind97%30.15 "Hg1 mi
5:00 AM58 °FLow clouds.No wind97%30.15 "Hg2 mi
4:00 AM58 °FDuststorm.No wind97%30.16 "Hg0 mi
3:00 AM58 °FPassing clouds.No wind95%30.16 "Hg0 mi
Weather by CustomWeather, © 2016

See weather overviewHow to use our weather pages